Location: Trebic
(49.2170°N, 15.8830°E)
Time: 00:07:01
(UTC+02:00)

Transit 4A - Pass Details

Date: 27 July 2019
Orbit: 863 x 981 km, 66.8° (Epoch: 22 August)

Event Time Altitude Azimuth Distance (km) Brightness Sun altitude
Rises 04:07:06 0° 274° (W) 3,682 10.6 -10.2°
Reaches altitude 10° 04:10:24 10° 291° (WNW) 2,739 10.1 -9.9°
Maximum altitude 04:15:06 21° 338° (NNW) 2,058 10.0 -9.3°
Drops below altitude 10° 04:19:49 10° 26° (NNE) 2,729 11.7 -8.8°
Sets 04:23:06 0° 42° (NE) 3,664 13.4 -8.4°
